Location: Dompnac
(44.5644°N, 4.1026°E)
Time: 13:14:13
(UTC+00:00)

Cosmos 2026 Rocket - Pass Details

Date: 26 January 2021
Orbit: 940 x 1000 km, 82.9° (Epoch: 28 February)

Event Time Altitude Azimuth Distance (km) Brightness Sun altitude
Rises 18:23:00 0° 189° (S) 3,608 7.2 -17.5°
Reaches altitude 10° 18:25:28 10° 190° (S) 2,673 6.5 -18.0°
Maximum altitude 18:31:36 81° 278° (W) 980 4.0 -19.1°
Drops below altitude 10° 18:37:52 10° 6° (N) 2,733 6.2 -20.2°
Sets 18:40:25 0° 8° (N) 3,693 6.9 -20.6°
